This is the latest recevied weather packets stored in our database for station/object KD8NVS-13. If no packets are shown the sender has not sent any weather packets the latest 1 day(s).
| Time | Temp. | Humidity | Pressure | Rain* | Wind** | Luminosity | Snow |
|---|---|---|---|---|---|---|---|
| 1778071418 | 9.44° C | 93% | 1000.1 hPa | 0 mm | - | 82 W/m² | - |
| 1778071116 | 9.44° C | 94% | 999.8 hPa | 0 mm | - | 98 W/m² | - |
| 1778069603 | 8.89° C | 97% | 999.8 hPa | 0 mm | - | 80 W/m² | - |
| 1778068695 | 8.33° C | 97% | 999.8 hPa | 0.25 mm | - | 34 W/m² | - |
| 1778068394 | 8.33° C | 97% | 999.8 hPa | 0.25 mm | - | 15 W/m² | - |
| 1778068091 | 8.33° C | 97% | 999.8 hPa | 0.25 mm | - | 12 W/m² | - |
| 1778067487 | 8.33° C | 97% | 999.3 hPa | 0.25 mm | - | 6 W/m² | - |
| 1778067184 | 8.33° C | 97% | 999 hPa | 0.25 mm | - | 6 W/m² | - |
| 1778066578 | 8.33° C | 97% | 999 hPa | 0.25 mm | - | 4 W/m² | - |
| 1778066275 | 8.33° C | 97% | 999 hPa | 0.25 mm | - | 3 W/m² | - |
| 1778065973 | 8.89° C | 97% | 998 hPa | 0.25 mm | - | 3 W/m² | - |
| 1778065670 | 8.89° C | 97% | 998 hPa | 0 mm | - | 4 W/m² | - |
| 1778065064 | 8.89° C | 96% | 998.7 hPa | 0 mm | - | 3 W/m² | - |
| 1778064156 | 8.89° C | 95% | 998.3 hPa | 0 mm | - | 1 W/m² | - |
| 1778063853 | 8.89° C | 95% | 998.7 hPa | 0 mm | - | 1 W/m² | - |
| 1778063550 | 8.89° C | 95% | 998.3 hPa | 0 mm | - | 1 W/m² | - |
| 1778063248 | 8.89° C | 95% | 998 hPa | 0 mm | - | 0 W/m² | - |
| 1778062339 | 8.89° C | 95% | 997.3 hPa | 0 mm | - | 0 W/m² | - |
| 1778062037 | 8.89° C | 94% | 997.3 hPa | 0 mm | - | 0 W/m² | - |
| 1778061735 | 8.89° C | 95% | 997 hPa | 0 mm | - | 0 W/m² | - |
| 1778061433 | 8.89° C | 95% | 997.3 hPa | 0.25 mm | - | 0 W/m² | - |
| 1778059919 | 8.89° C | 96% | 997.3 hPa | 0 mm | - | 0 W/m² | - |
| 1778057193 | 9.44° C | 97% | 997.3 hPa | 1.78 mm | - | 0 W/m² | - |
| 1778056890 | 9.44° C | 97% | 997.3 hPa | 1.52 mm | - | 0 W/m² | - |
| 1778056587 | 9.44° C | 96% | 997.6 hPa | 1.52 mm | - | 0 W/m² | - |
* Rain latest hour (hover to see other rain measurements)
** Current wind speed in m/s (hover to see current wind gust speed)